Location: Carbonear
(47.7333°N, 53.2500°W)
Time: 22:00:52
(UTC+00:00)

STRAND 1 - Pass Details

Date: 02 December 2022
Orbit: 768 x 779 km, 98.4° (Epoch: 01 February)

Event Time Altitude Azimuth Distance (km) Brightness Sun altitude
Exits shadow 21:18:05 11° 122° (ESE) 2,230 ? -15.4°
Drops below altitude 10° 21:18:27 10° 125° (SE) 2,306 ? -15.5°
Sets 21:21:41 0° 147° (SSE) 3,227 ? -16.0°
